Location: Unspecified
(0.0000°N, 0.0000°E)
Time: 03:12:26
(UTC+00:00)

Vanguard 2 Rocket - Pass Details

Date: 09 December 2017
Orbit: 553 x 3328 km, 32.9° (Epoch: 21 June)

Event Time Altitude Azimuth Distance (km) Brightness Sun altitude
Rises 15:36:58 0° 218° (SW) 3,347 10.7 30.9°
Reaches altitude 10° 15:39:08 10° 210° (SSW) 2,634 10.3 30.4°
Maximum altitude 15:45:12 44° 139° (SE) 1,742 8.5 29.1°
Drops below altitude 10° 15:55:33 10° 71° (ENE) 4,464 9.9 26.7°
Sets 16:00:23 0° 66° (ENE) 5,943 10.5 25.7°
